Orbital Elements at Epoch 2459200.5 (2020-Dec-17.0) TDB
Reference: JPL 17 (heliocentric ecliptic J2000)
Element | Value | Uncertainty (1-sigma) | Units |
e | .1054131312347776 | 5.0312e-08 | |
a | 2.713441862496528 | 2.3142e-08 | au |
q | 2.427409459347242 | 1.3449e-07 | au |
i | 3.230894932421496 | 5.8958e-06 | deg |
node | 355.6972596282471 | 9.1603e-05 | deg |
peri | 29.3260524354983 | 9.6449e-05 | deg |
M | 120.1452211156469 | 2.8294e-05 | deg |
tp | 2458655.642154781896 (2019-Jun-21.14215478) | 0.0001274 | TDB |
period | 1632.597805032234 4.47 | 2.0886e-05 5.718e-08 | d yr |
n | .2205074629466943 | 2.821e-09 | deg/d |
Q | 2.999474265645814 | 2.5582e-08 | au |
|
| | Orbit Determination Parameters
Additional Information
|